Regional Weather Roundup
Issued by NWS Sterling, VA

Home | Current Version | Previous Version | Graphics & Text | Print | Product List | Glossary On
Versions: 1 2 3 4 5 6 7 8 9 10 11 12 13 14 15 16 17 18 19 20 21 22 23 24 25 26 27 28
000
ASUS41 KLWX 252210
RWRLWX

REGIONAL WEATHER ROUNDUP
NATIONAL WEATHER SERVICE BALTIMORE MD/WASHINGTON DC
600 PM EDT SAT OCT 25 2014

Note: "FAIR" indicates few or no clouds below 12,000 feet
with no significant weather and/or obstructions to visibility.
 TC=TEMPERATURE CELSIUS

 * =Non NWS site. Station does not report precipitation (e.g. rain,
    snow, etc.), thunder, or fog.

DCZ001-MDZ009-015-VAZ040>042-051-053>054-252300-
WASHINGTON METRO

CITY           SKY/WX    TMP DP  RH WIND       PRES   REMARKS
WASHINGTON NAT PTCLDY    69  39  33 S13       29.75F
DULLES         PTCLDY    67  42  40 SW10      29.75F
ANDREWS AFB    CLEAR     65  39  38 S12       29.75F
FT BELVOIR     CLEAR     66  42  42 VRB3      29.76F
QUANTICO       CLEAR     68  40  35 SW7       29.78F
COLLEGE PARK*  CLEAR     68  37  32 S6        29.74F
LEESBURG*      CLEAR     70  46  43 SW5       29.76F
MANASSAS*      CLEAR     66  41  39 S6        29.76F
GAITHERSBURG*  CLEAR     68  41  37 SW5       29.78F

$$

MDZ006>007-011-014-252300-
BALTIMORE METRO

CITY           SKY/WX    TMP DP  RH WIND       PRES   REMARKS
BWI AIRPORT    PTCLDY    67  43  41 SW3       29.73F
MD SCIENCE CTR   N/A     69  41  36 MISG      29.73F
MARTIN STATE   CLEAR     70  46  43 SW9       29.74F
ANNAPOLIS      CLEAR     67  40  37 S7        29.74F
FORT MEADE*    CLEAR     61  48  63 SW6       29.76F

$$

MDZ012-015-019>023-252300-
MARYLAND EASTERN SHORE

CITY           SKY/WX    TMP DP  RH WIND       PRES   REMARKS
OCEAN CITY     CLEAR     63  44  50 SW7       29.78F
SALISBURY      CLEAR     63  46  54 SW8       29.78F
BAY BRIDGE AP*   N/A     66  39  37 S7        29.74F
CAMBRIDGE*     CLEAR     64  43  45 SW5       29.77F
EASTON*        CLEAR     66  46  48 SW6       29.80F

$$

MDZ017>025-252300-
SOUTHERN MARYLAND

CITY           SKY/WX    TMP DP  RH WIND       PRES   REMARKS
PATUXENT RIVER PTCLDY    66  42  41 SW6       29.79F
ST INIGOES     CLEAR     66  43  43 SW10      29.79F
LEONARDTOWN*   CLEAR     64  43  45 SW6       29.80F

$$

MDZ003>005-252300-
NORTH CENTRAL MARYLAND

CITY           SKY/WX    TMP DP  RH WIND       PRES   REMARKS
FREDERICK*     CLEAR     72  41  33 W12       29.75F
HAGERSTOWN APT CLEAR     70  43  37 SW7       29.72F
WESTMINSTER*   CLEAR     66  43  42 SW8       29.72F

$$

MDZ501>502-252300-
WESTERN MARYLAND

CITY           SKY/WX    TMP DP  RH WIND       PRES   REMARKS
OAKLAND*       CLEAR     54  45  71 W15G21    29.82F
CUMBERLAND*    CLEAR     68  45  42 W8G21     29.79F

$$

VAZ025>031-252300-
SHENANDOAH VALLEY

CITY           SKY/WX    TMP DP  RH WIND       PRES   REMARKS
WINCHESTER*    CLEAR     72  32  23 W12       29.75F
FRONT ROYAL*   FAIR      68  45  42 S5        29.75F
LURAY*         FAIR      70  46  43 SW6       29.78F
NEW MARKET*    FAIR      67  47  49 CALM      29.77F
STAUNTON*      PTCLDY    69  39  34 SW5       29.82F
WAYNESBORO*    FAIR      66  40  38 SW9       29.82F

$$

WVZ021-048>050-054>055-252300-
EASTERN WEST VIRGINIA PANHANDLE

CITY           SKY/WX    TMP DP  RH WIND       PRES   REMARKS
MARTINSBURG    CLEAR     69  41  36 SW8       29.74F
PETERSBURG*    CLEAR     69  41  35 CALM      29.80S

$$

VAZ036>039-050-252300-
CENTRAL FOOTHILLS

CITY           SKY/WX    TMP DP  RH WIND       PRES   REMARKS
CHARLOTTESVILL CLEAR     67  43  41 S6        29.79F
CULPEPER*      CLEAR     70  39  32 S5        29.77F
ORANGE*        CLEAR     68  43  40 SE5       29.80F
GORDONSVILLE*  FAIR      65  43  45 S5        29.78F
WARRENTON*     FAIR      68  48  48 S5        29.76F

$$

VAZ055>057-252300-
NORTH AND CENTRAL PIEDMONT

CITY           SKY/WX    TMP DP  RH WIND       PRES   REMARKS
FREDERICKSBRG* CLEAR     69  43  39 S7        29.78F
STAFFORD*      CLEAR     66  37  34 CALM      29.82F

$$

NCZ024-NYZ072-PAZ021-071-VAZ022-071-252300-
OTHER REGIONAL OBSERVATIONS

CITY           SKY/WX    TMP DP  RH WIND       PRES   REMARKS
NEW YORK CITY  CLEAR     65  42  43 VRB3      29.67F
PHILADELPHIA   PTCLDY    66  46  48 SW9       29.70F
PITTSBURGH     MOCLDY    65  51  60 W12G26    29.76F
ROANOKE        PTCLDY    70  41  34 W6        29.90F
RICHMOND       CLEAR     68  40  35 SW9       29.83F
RALEIGH        CLEAR     66  45  46 W5        29.91S

$$

ANZ530>537-252300-
MARINE OBSERVATIONS

STATION/POSITION TIME  TEMP    WIND        PRES
                       AIR SEA DIR/SP/G
                 (UTC) (F)     (DEG/KT/KT) (MB)
THOMAS PT LIGHT  2200   67 62  210/ 15/ 15 1008.2F
BALT KEY BRIDGE  2200   69     190/  6/  7 1006.3F
COVE POINT       2200   68     240/  9/ 12 1008.4F
LEWISETTA        2200   68 61  240/  7/  8 1008.7F
SOLOMONS ISLAND  2200      63                N/A
PINEY POINT      2200          250/  4/  5   N/A

$$




USA.gov is the U.S. government's official web portal to all federal, state and local government web resources and services.